Home > Weather > Portsmouth > Past weeks

Flag for USA Past Weather in Portsmouth, Virginia, USA — Yesterday and Last 2 Weeks

Now
76 °F

Partly cloudy.


Feels Like: 77 °F
Forecast: 72 / 79 °F
Wind: 7 mph from Southwest

Location: Norfolk Naval Air Station

Current Time: Jun 28, 2016 at 3:48:05 AM

Latest Report: Jun 28, 2016 at 2:59 AM


Visibility: 10 mi

Pressure: 29.97 "Hg

Humidity: 80%

Dew Point: 69 °F

Location of PortsmouthLocation

Past Weather in Portsmouth — Graph

°F

Portsmouth Temperature Yesterday

Maximum temperature yesterday: 84 °F (at 3:59 PM)
Minimum temperature yesterday: 63 °F (at 4:59 AM)
Average temperature yesterday: 75 °F

High & Low Weather Summary for the Past Weeks

 TemperatureHumidityPressure
High88 °F (Jun 21, 1:59 PM)97% (Jun 27, 7:59 AM)30.38 "Hg (Jun 27, 7:59 AM)
Low60 °F (Jun 19, 4:59 AM)27% (Jun 19, 4:59 PM)29.67 "Hg (Jun 17, 2:59 AM)
Average75 °F69%30.02 "Hg
* Reported Jun 13 1:59 AM — Jun 28 1:59 AM, Portsmouth, Weather by CustomWeather, © 2016

Note: Actual official high and low records may vary slightly from our data, if they occured in-between our weather recording intervals... More about our weather records

Advertising

Portsmouth Weather History for the Previous 24 Hours

Scroll right to see more
 ConditionsComfort  
Time TempWeatherWind HumidityBarometerVisibility
1:59 AM
Tue, Jun 28
76 °FPassing clouds.10 mph80%29.98 "Hg10 mi
12:59 AM76 °FPassing clouds.7 mph80%29.99 "Hg10 mi
11:59 PM
Mon, Jun 27
76 °FPassing clouds.8 mph80%30.01 "Hg10 mi
10:59 PM76 °FPassing clouds.8 mph80%30.01 "Hg10 mi
9:59 PM77 °FPassing clouds.8 mph77%30.02 "Hg10 mi
8:59 PM78 °FScattered clouds.8 mph74%30.02 "Hg10 mi
7:59 PM80 °FScattered clouds.8 mph64%30.01 "Hg10 mi
6:59 PM83 °FScattered clouds.10 mph57%30.00 "Hg10 mi
5:59 PM83 °FScattered clouds.6 mph65%30.00 "Hg10 mi
4:59 PM82 °FPassing clouds.10 mph65%30.01 "Hg10 mi
3:59 PM84 °FPassing clouds.10 mph63%30.02 "Hg10 mi
2:59 PM83 °FPassing clouds.12 mph59%30.04 "Hg10 mi
1:59 PM83 °FPassing clouds.6 mph53%30.07 "Hg10 mi
12:59 PM83 °FScattered clouds.5 mph50%30.09 "Hg10 mi
11:59 AM80 °FScattered clouds.5 mph54%30.12 "Hg10 mi
10:59 AM78 °FScattered clouds.6 mph69%30.12 "Hg9 mi
9:59 AM75 °FBroken clouds.6 mph74%30.12 "Hg9 mi
8:59 AM68 °FFog.No wind93%30.14 "Hg5 mi
7:59 AM67 °FFog.No wind97%30.14 "Hg0 mi
6:59 AM67 °FScattered clouds.3 mph93%30.13 "Hg7 mi
5:59 AM63 °FPassing clouds.No wind93%30.12 "Hg7 mi
4:59 AM63 °FPassing clouds.No wind93%30.13 "Hg7 mi
3:59 AM65 °FClear.No wind94%30.14 "Hg8 mi
Weather by CustomWeather, © 2016

See weather overviewHow to use our weather pages